When you browse on this site, cookies collect data to enhance your experience and personalize the content and advertising you see.
Visit our Privacy Policy to learn more. By continuing to use the site, you agree to this use of cookies and data.

Hourly Weather Ghazni

Today, 9 July, Thursday

Time Temperature Precipitation Wind Pressure Humidity
00:00 +26°C° 0 mm 3 mps 588 mmHg 28%
01:00 +25°C° 0 mm 2 mps 587 mmHg 32%
02:00 +24°C° 0 mm 1 mps 587 mmHg 36%
03:00 +23°C° 0 mm 1 mps 586 mmHg 40%
04:00 +22°C° 0 mm 1 mps 586 mmHg 44%
05:00 +20°C° 0 mm 2 mps 585 mmHg 48%
06:00 +21°C° 0 mm 2 mps 586 mmHg 46%
07:00 +23°C° 0 mm 2 mps 586 mmHg 44%
08:00 +24°C° 0 mm 2 mps 587 mmHg 42%
09:00 +25°C° 0 mm 2 mps 587 mmHg 37%
10:00 +27°C° 0 mm 1 mps 587 mmHg 32%
11:00 +28°C° 0 mm 1 mps 587 mmHg 28%
12:00 +29°C° 0 mm 2 mps 587 mmHg 24%
13:00 +30°C° 0 mm 3 mps 587 mmHg 21%
14:00 +31°C° 0 mm 3 mps 587 mmHg 18%
15:00 +33°C° 0 mm 4 mps 587 mmHg 15%
16:00 +33°C° 0 mm 5 mps 587 mmHg 12%
17:00 +34°C° 0 mm 6 mps 587 mmHg 9%
18:00 +33°C° 0 mm 7 mps 587 mmHg 9%
19:00 +32°C° 0 mm 7 mps 587 mmHg 9%
20:00 +29°C° 0 mm 7 mps 587 mmHg 9%
21:00 +28°C° 0 mm 7 mps 586 mmHg 14%
22:00 +27°C° 0 mm 6 mps 586 mmHg 19%
23:00 +26°C° 0 mm 5 mps 586 mmHg 24%

Tomorrow, 10 July, Friday

Time Temperature Precipitation Wind Pressure Humidity
00:00 +25°C° 0 mm 5 mps 585 mmHg 27%
01:00 +23°C° 0 mm 4 mps 585 mmHg 30%
02:00 +23°C° 0 mm 4 mps 585 mmHg 33%
03:00 +22°C° 0 mm 3 mps 584 mmHg 33%
04:00 +22°C° 0 mm 3 mps 584 mmHg 34%
05:00 +21°C° 0 mm 3 mps 584 mmHg 34%
06:00 +23°C° 0 mm 2 mps 584 mmHg 32%
07:00 +24°C° 0 mm 2 mps 585 mmHg 30%
08:00 +25°C° 0 mm 2 mps 586 mmHg 28%
09:00 +26°C° 0 mm 2 mps 586 mmHg 25%
10:00 +27°C° 0 mm 2 mps 586 mmHg 23%
11:00 +29°C° 0 mm 2 mps 587 mmHg 21%
12:00 +29°C° 0 mm 2 mps 587 mmHg 19%
13:00 +30°C° 0 mm 2 mps 586 mmHg 17%
14:00 +31°C° 0 mm 2 mps 586 mmHg 15%
15:00 +32°C° 0 mm 2 mps 586 mmHg 14%
16:00 +33°C° 0 mm 3 mps 586 mmHg 14%
17:00 +33°C° 0 mm 3 mps 586 mmHg 14%
18:00 +31°C° 0 mm 2 mps 586 mmHg 14%
19:00 +31°C° 0 mm 2 mps 586 mmHg 15%
20:00 +30°C° 0 mm 1 mps 586 mmHg 16%
21:00 +29°C° 0 mm 2 mps 586 mmHg 16%
22:00 +27°C° 0 mm 3 mps 586 mmHg 17%
23:00 +26°C° 0 mm 4 mps 585 mmHg 17%

Day after tomorrow, 11 July, Saturday

Time Temperature Precipitation Wind Pressure Humidity
00:00 +25°C° 0 mm 4 mps 585 mmHg 18%
01:00 +23°C° 0 mm 4 mps 585 mmHg 19%
02:00 +22°C° 0 mm 4 mps 584 mmHg 20%
03:00 +22°C° 0 mm 4 mps 584 mmHg 21%
04:00 +21°C° 0 mm 4 mps 584 mmHg 22%
05:00 +20°C° 0 mm 3 mps 583 mmHg 24%
06:00 +21°C° 0 mm 3 mps 584 mmHg 22%
07:00 +22°C° 0 mm 3 mps 584 mmHg 21%
08:00 +24°C° 0 mm 3 mps 585 mmHg 20%
09:00 +26°C° 0 mm 3 mps 585 mmHg 18%
10:00 +27°C° 0 mm 3 mps 585 mmHg 16%
11:00 +29°C° 0 mm 3 mps 586 mmHg 14%
12:00 +30°C° 0 mm 3 mps 586 mmHg 13%
13:00 +31°C° 0 mm 2 mps 585 mmHg 12%
14:00 +32°C° 0 mm 2 mps 585 mmHg 10%
15:00 +32°C° 0 mm 2 mps 585 mmHg 10%
16:00 +32°C° 0 mm 2 mps 584 mmHg 10%
17:00 +32°C° 0 mm 2 mps 584 mmHg 10%
18:00 +31°C° 0 mm 2 mps 584 mmHg 11%
19:00 +31°C° 0 mm 1 mps 584 mmHg 13%
20:00 +30°C° 0 mm 1 mps 584 mmHg 14%
21:00 +28°C° 0 mm 2 mps 583 mmHg 17%
22:00 +27°C° 0 mm 3 mps 583 mmHg 19%
23:00 +26°C° 0 mm 5 mps 583 mmHg 22%

12 July, Sunday

Time Temperature Precipitation Wind Pressure Humidity
00:00 +25°C° 0 mm 4 mps 583 mmHg 22%
01:00 +25°C° 0 mm 4 mps 583 mmHg 23%
02:00 +23°C° 0 mm 4 mps 582 mmHg 24%
03:00 +23°C° 0 mm 4 mps 582 mmHg 26%
04:00 +22°C° 0 mm 4 mps 582 mmHg 29%
05:00 +21°C° 0 mm 5 mps 582 mmHg 32%
06:00 +21°C° 0 mm 5 mps 582 mmHg 32%
07:00 +22°C° 0 mm 5 mps 583 mmHg 31%
08:00 +23°C° 0 mm 5 mps 583 mmHg 31%
09:00 +25°C° 0 mm 4 mps 583 mmHg 30%
10:00 +26°C° 0 mm 3 mps 584 mmHg 29%
11:00 +27°C° 0 mm 3 mps 584 mmHg 28%
12:00 +28°C° 0 mm 3 mps 584 mmHg 24%
13:00 +30°C° 0 mm 4 mps 585 mmHg 21%
14:00 +32°C° 0 mm 5 mps 585 mmHg 18%
15:00 +33°C° 0 mm 6 mps 585 mmHg 15%
16:00 +33°C° 0 mm 7 mps 585 mmHg 13%
17:00 +34°C° 0 mm 8 mps 586 mmHg 11%
18:00 +32°C° 0 mm 8 mps 585 mmHg 19%
19:00 +29°C° 0 mm 8 mps 585 mmHg 28%
20:00 +27°C° 0 mm 8 mps 584 mmHg 36%
21:00 +24°C° 1.1 mm 6 mps 584 mmHg 42%
22:00 +23°C° 1.1 mm 4 mps 584 mmHg 48%
23:00 +22°C° 1.1 mm 3 mps 584 mmHg 54%

13 July, Monday

Time Temperature Precipitation Wind Pressure Humidity
00:00 +21°C° 0.2 mm 3 mps 584 mmHg 54%
01:00 +21°C° 0.2 mm 3 mps 584 mmHg 54%
02:00 +21°C° 0.2 mm 4 mps 584 mmHg 54%
03:00 +20°C° 0 mm 3 mps 583 mmHg 55%
04:00 +20°C° 0 mm 3 mps 583 mmHg 55%
05:00 +20°C° 0 mm 2 mps 583 mmHg 55%
06:00 +20°C° 0.2 mm 2 mps 584 mmHg 53%
07:00 +21°C° 0.2 mm 3 mps 584 mmHg 50%
08:00 +21°C° 0.2 mm 3 mps 584 mmHg 47%
09:00 +24°C° 0 mm 3 mps 585 mmHg 43%
10:00 +25°C° 0 mm 3 mps 585 mmHg 38%
11:00 +26°C° 0 mm 2 mps 586 mmHg 34%
12:00 +28°C° 0 mm 4 mps 586 mmHg 29%
13:00 +29°C° 0 mm 5 mps 587 mmHg 24%
14:00 +32°C° 0 mm 7 mps 587 mmHg 18%
15:00 +32°C° 0 mm 7 mps 587 mmHg 17%
16:00 +33°C° 0 mm 7 mps 588 mmHg 16%
17:00 +33°C° 0 mm 7 mps 588 mmHg 15%
18:00 +29°C° 0.4 mm 6 mps 587 mmHg 27%
19:00 +26°C° 0.4 mm 6 mps 586 mmHg 40%
20:00 +22°C° 0.4 mm 5 mps 586 mmHg 53%
21:00 +21°C° 0.5 mm 4 mps 586 mmHg 53%
22:00 +21°C° 0.5 mm 3 mps 586 mmHg 54%
23:00 +20°C° 0.5 mm 2 mps 587 mmHg 54%

14 July, Tuesday

Time Temperature Precipitation Wind Pressure Humidity
00:00 +21°C° 0 mm 1 mps 587 mmHg 55%
01:00 +21°C° 0 mm 1 mps 587 mmHg 55%
02:00 +19°C° 0 mm 0 mps 587 mmHg 56%
03:00 +19°C° 0 mm 0 mps 587 mmHg 58%
04:00 +20°C° 0 mm 1 mps 587 mmHg 60%
05:00 +20°C° 0 mm 1 mps 587 mmHg 62%
06:00 +19°C° 0 mm 0 mps 587 mmHg 59%
07:00 +19°C° 0 mm 0 mps 588 mmHg 56%
08:00 +20°C° 0 mm 0 mps 588 mmHg 53%
09:00 +23°C° 0 mm 1 mps 588 mmHg 47%
10:00 +25°C° 0 mm 1 mps 589 mmHg 42%
11:00 +26°C° 0 mm 1 mps 589 mmHg 37%
12:00 +27°C° 0 mm 2 mps 589 mmHg 32%
13:00 +29°C° 0 mm 3 mps 589 mmHg 27%
14:00 +30°C° 0 mm 3 mps 589 mmHg 22%
15:00 +30°C° 0 mm 4 mps 589 mmHg 21%
16:00 +32°C° 0 mm 5 mps 589 mmHg 20%
17:00 +32°C° 0 mm 6 mps 589 mmHg 19%
18:00 +30°C° 0 mm 5 mps 589 mmHg 22%
19:00 +29°C° 0 mm 4 mps 589 mmHg 24%
20:00 +28°C° 0 mm 4 mps 589 mmHg 26%
21:00 +27°C° 0 mm 3 mps 589 mmHg 30%
22:00 +26°C° 0 mm 3 mps 589 mmHg 34%
23:00 +25°C° 0 mm 3 mps 589 mmHg 39%
Show more